Weather History for Chitose AB, Japan

Change the Weather History Date:

Saturday, February 2, 2013

  Actual Average Record
Temperature  
Mean Temperature 32 °F -  
Max Temperature 41 °F 29 °F 41 °F (2013)
Min Temperature 21 °F 9 °F 0 °F (1999)
Degree Days  
Heating Degree Days 33    
Moisture  
Dew Point 26 °F    
Average Humidity 72    
Maximum Humidity 93    
Minimum Humidity 48    
Precipitation  
Precipitation 0.00 in - - ()
Sea Level Pressure  
Sea Level Pressure 29.73 in    
Wind  
Wind Speed 13 mph ()    
Max Wind Speed 25 mph    
Max Gust Speed 33 mph    
Visibility 5.7 miles    
Events Rain    
Averages and records for this station are not official NWS values.
T = Trace of Precipitation, MM = Missing Value Source: Averaged Metar Reports

Daily Weather History Graph

Daily Weather History Graph

Search for Another Location

Airport:

Trip Planner

Search our weather history database for the weather conditions in past years. The results will help you decide how hot, cold, wet, or windy it might be!

Date:

Astronomy

Feb. 02, 2013 Rise Set
Actual Time 6:47 AM JST 4:47 PM JST
Civil Twilight 6:17 AM JST 5:17 PM JST
Nautical Twilight 5:43 AM JST 5:51 PM JST
Astronomical Twilight 5:10 AM JST 6:24 PM JST
Moon 11:29 PM JST (2/2) 9:23 AM JST (2/2)
Length of Visible Light 11h 00m
Length of Day
10h 00m
Waning Gibbous, 66% of the Moon is Illuminated
Feb 2
Waning Gibbous
Feb 3
Last Quarter
Feb 10
New
Feb 18
First Quarter
Feb 26
Full

Hourly Weather History & Observations

Time (JST) Temp. Windchill Dew Point Humidity Pressure Visibility Wind Dir Wind Speed Gust Speed Precip Events Conditions
12:00 AM 37.4 °F 29.3 °F 30.2 °F 75% 30.01 in 6.2 mi SSE 12.7 mph - N/A   Mostly Cloudy
12:30 AM 37.4 °F 30.8 °F 32.0 °F 81% 29.98 in 6.2 mi SE 9.2 mph - N/A   Mostly Cloudy
1:00 AM 37.4 °F 30.3 °F 32.0 °F 81% 29.95 in 6.2 mi SE 10.4 mph - N/A   Mostly Cloudy
1:30 AM 37.4 °F 30.8 °F 32.0 °F 81% 29.95 in 6.2 mi SSE 9.2 mph - N/A   Mostly Cloudy
2:00 AM 39.2 °F 31.2 °F 32.0 °F 75% 29.92 in 6.2 mi SSE 13.8 mph - N/A Rain Light Rain Showers
2:30 AM 39.2 °F 30.8 °F 32.0 °F 75% 29.86 in 6.2 mi SE 15.0 mph - N/A Rain Light Rain Showers
3:00 AM 39.2 °F 30.5 °F 33.8 °F 81% 29.83 in 6.2 mi SE 16.1 mph - N/A Rain Light Rain Showers
3:30 AM 37.4 °F 28.5 °F 32.0 °F 81% 29.83 in 6.2 mi SSE 15.0 mph - N/A   Mostly Cloudy
4:00 AM 39.2 °F 30.5 °F 33.8 °F 81% 29.80 in 6.2 mi SSE 16.1 mph - N/A Rain Light Rain Showers
4:30 AM 39.2 °F 29.8 °F 33.8 °F 81% 29.77 in 6.2 mi SE 18.4 mph - N/A Rain Light Rain Showers
5:00 AM 37.4 °F 27.5 °F 33.8 °F 87% 29.74 in 5.6 mi SSE 18.4 mph - N/A Rain Light Rain Showers
5:05 AM 37.4 °F 27.5 °F 33.8 °F 87% 29.74 in 5.0 mi SE 18.4 mph 29.9 mph N/A Rain Light Rain Showers
5:30 AM 37.4 °F 27.2 °F 35.6 °F 93% 29.71 in 3.7 mi SE 19.6 mph - N/A Rain Light Rain Showers
6:00 AM 37.4 °F 26.9 °F 35.6 °F 93% 29.71 in 3.7 mi SSE 20.7 mph - N/A Rain Rain Showers
6:30 AM 37.4 °F 26.9 °F 35.6 °F 93% 29.68 in 3.7 mi SSE 20.7 mph - N/A Rain Rain Showers
6:33 AM 37.4 °F 27.2 °F 35.6 °F 93% 29.68 in 3.7 mi SSE 19.6 mph 31.1 mph N/A Rain Rain Showers
7:00 AM 39.2 °F 29.0 °F 35.6 °F 87% 29.65 in 4.3 mi SSE 21.9 mph - N/A Rain Light Rain Showers
7:30 AM 37.4 °F 26.9 °F 35.6 °F 93% 29.62 in 4.3 mi SSE 20.7 mph - N/A Rain Light Rain Showers
8:00 AM 37.4 °F 27.5 °F 35.6 °F 93% 29.59 in 3.7 mi SSE 18.4 mph - N/A Rain Light Rain Showers
8:30 AM 39.2 °F 29.3 °F 35.6 °F 87% 29.59 in 5.0 mi SSE 20.7 mph - N/A Rain Light Rain Showers
9:00 AM 39.2 °F 28.7 °F 35.6 °F 87% 29.56 in 3.7 mi SSE 23.0 mph - N/A Rain Light Rain Showers
9:30 AM 39.2 °F 28.5 °F 35.6 °F 87% 29.56 in 3.7 mi South 24.2 mph - N/A Rain Light Rain Showers
9:48 AM 39.2 °F 29.0 °F 35.6 °F 87% 29.56 in 5.0 mi South 21.9 mph 33.4 mph N/A Rain Light Rain Showers
10:00 AM 39.2 °F 29.3 °F 35.6 °F 87% 29.56 in 5.6 mi South 20.7 mph - N/A Rain Light Rain Showers
10:05 AM 37.4 °F 27.8 °F 35.6 °F 93% 29.56 in 5.6 mi South 17.3 mph 28.8 mph N/A Rain Light Rain Showers
10:30 AM 39.2 °F 33.6 °F 37.4 °F 93% 29.59 in 5.0 mi SSW 8.1 mph - N/A Rain Light Rain Showers
10:42 AM 39.2 °F 34.2 °F 37.4 °F 93% 29.59 in 5.0 mi SSW 6.9 mph - N/A   Mostly Cloudy
11:00 AM 39.2 °F 37.0 °F 37.4 °F 93% 29.59 in 6.2 mi South 3.5 mph - N/A   Scattered Clouds
11:30 AM 41.0 °F 35.2 °F 35.6 °F 81% 29.59 in 6.2 mi NNW 9.2 mph - N/A   Mostly Cloudy
12:00 PM 41.0 °F 33.1 °F 32.0 °F 70% 29.62 in 6.2 mi NNW 15.0 mph - N/A   Mostly Cloudy
12:30 PM 41.0 °F 33.1 °F 28.4 °F 61% 29.62 in 6.2 mi West 15.0 mph - N/A   Mostly Cloudy
1:00 PM 39.2 °F 32.0 °F 26.6 °F 61% 29.65 in 6.2 mi WNW 11.5 mph 25.3 mph N/A   Unknown
1:16 PM 39.2 °F 33.6 °F 24.8 °F 56% 29.65 in 6.2 mi North 8.1 mph - N/A Rain Light Rain Showers
1:30 PM 37.4 °F 33.8 °F 30.2 °F 75% 29.68 in 6.2 mi North 4.6 mph - N/A Rain Light Rain Showers
2:00 PM 37.4 °F 32.8 °F 26.6 °F 65% 29.68 in 6.2 mi North 5.8 mph - N/A   Scattered Clouds
2:08 PM 37.4 °F 28.5 °F 21.2 °F 52% 29.68 in 6.2 mi Variable 15.0 mph - N/A   Partly Cloudy
2:19 PM 37.4 °F 27.2 °F 21.2 °F 52% 29.68 in 6.2 mi West 19.6 mph 32.2 mph N/A   Partly Cloudy
2:30 PM 35.6 °F 23.4 °F 19.4 °F 52% 29.68 in 6.2 mi WSW 25.3 mph - N/A   Partly Cloudy
3:00 PM 35.6 °F 24.2 °F 17.6 °F 48% 29.68 in 6.2 mi West 21.9 mph - N/A   Partly Cloudy
3:30 PM 33.8 °F 21.3 °F 15.8 °F 48% 29.71 in 6.2 mi WSW 24.2 mph - N/A   Partly Cloudy
4:00 PM 32.0 °F 20.1 °F 15.8 °F 51% 29.74 in 6.2 mi WSW 19.6 mph - N/A   Partly Cloudy
4:19 PM 32.0 °F 20.5 °F 15.8 °F 51% 29.74 in 6.2 mi West 18.4 mph 29.9 mph N/A   Partly Cloudy
4:30 PM 30.2 °F 18.9 °F 14.0 °F 51% 29.74 in 6.2 mi West 16.1 mph - N/A   Partly Cloudy
5:00 PM 30.2 °F 18.9 °F 14.0 °F 51% 29.77 in 6.2 mi West 16.1 mph - N/A   Partly Cloudy
5:30 PM 30.2 °F 21.3 °F 14.0 °F 51% 29.77 in 6.2 mi West 10.4 mph - N/A   Partly Cloudy
6:00 PM 30.2 °F 26.7 °F 14.0 °F 51% 29.80 in 6.2 mi NNW 3.5 mph - N/A   Partly Cloudy
6:30 PM 28.4 °F 20.4 °F 15.8 °F 59% 29.80 in 6.2 mi WNW 8.1 mph - N/A   Scattered Clouds
7:00 PM 26.6 °F 16.2 °F 10.4 °F 51% 29.80 in 6.2 mi NW 11.5 mph - N/A   Mostly Cloudy
7:30 PM 26.6 °F 14.3 °F 12.2 °F 55% 29.83 in 6.2 mi NNW 16.1 mph - N/A   Scattered Clouds
8:00 PM 24.8 °F 11.9 °F 10.4 °F 54% 29.83 in 6.2 mi NW 16.1 mph - N/A   Scattered Clouds
8:30 PM 24.8 °F 11.9 °F 10.4 °F 54% 29.83 in 6.2 mi NW 16.1 mph - N/A   Partly Cloudy
9:00 PM 24.8 °F 14.0 °F 8.6 °F 50% 29.83 in 6.2 mi NNW 11.5 mph - N/A   Partly Cloudy
9:30 PM 24.8 °F 14.6 °F 10.4 °F 54% 29.86 in 6.2 mi NNE 10.4 mph - N/A   Mostly Cloudy
10:00 PM 23.0 °F 14.7 °F 12.2 °F 63% 29.86 in 6.2 mi NNE 6.9 mph - N/A   Mostly Cloudy
10:30 PM 23.0 °F 15.8 °F 12.2 °F 63% 29.83 in 6.2 mi North 5.8 mph - N/A   Mostly Cloudy
11:00 PM 23.0 °F 15.8 °F 12.2 °F 63% 29.83 in 6.2 mi NE 5.8 mph - N/A   Mostly Cloudy
11:30 PM 21.2 °F 16.4 °F 12.2 °F 68% 29.83 in 6.2 mi South 3.5 mph - N/A   Scattered Clouds